Guymon, OK

11:05 AM CDT on August 21, 2017 (GMT -0500)
Guymon Municipal

Weather History for KGUY - February, 2013

Change the Weather History Date:

Saturday, February 23, 2013

  Actual Average Record
Temperature  
Mean Temperature 30 °F 40 °F  
Max Temperature 38 °F 55 °F 78 °F (2017)
Min Temperature 21 °F 25 °F 7 °F (2003)
Degree Days  
Heating Degree Days 35 25  
Month to date heating degree days 618 618  
Since 1 July heating degree days 3076 3346  
Cooling Degree Days 0 0  
Month to date cooling degree days 0 0  
Year to date cooling degree days 0 0  
Moisture  
Dew Point 27 °F    
Average Humidity 84    
Maximum Humidity 92    
Minimum Humidity 75    
Precipitation  
Precipitation T in 0.02 in 0.07 in (2016)
Month to date precipitation 0.91 0.38  
Year to date precipitation 1.22 0.78  
Snow  
Snow T in - - ()
Month to date snowfall 11.0  
Since 1 July snowfall 14.2  
Snow Depth 5.00 in    
Sea Level Pressure  
Sea Level Pressure 29.88 in    
Wind  
Wind Speed 8 mph (South)    
Max Wind Speed 16 mph    
Max Gust Speed 20 mph    
Visibility 9 miles    
Events Snow    
T = Trace of Precipitation, MM = Missing Value Source: NWS Daily Summary

Daily Weather History Graph

Daily Weather History Graph

Search for Another Location

Airport or City:

Trip Planner

Search our weather history database for the weather conditions in past years. The results will help you decide how hot, cold, wet, or windy it might be!

Date:

Astronomy

Feb. 23, 2013 Rise Set
Actual Time 7:24 AM CST 6:34 PM CST
Civil Twilight 6:58 AM CST 7:01 PM CST
Nautical Twilight 6:28 AM CST 7:31 PM CST
Astronomical Twilight 5:58 AM CST 8:01 PM CST
Moon 4:48 PM CST (2/23) 5:45 AM CST (2/23)
Length of Visible Light 12h 03m
Length of Day
11h 10m
Waxing Gibbous, 95% of the Moon is Illuminated
Feb 23
Waxing Gibbous
Feb 25
Full
Mar 4
Last Quarter
Mar 11
New
Mar 19
First Quarter

Hourly Weather History & Observations

Time (CST) Temp. Windchill Dew Point Humidity Pressure Visibility Wind Dir Wind Speed Gust Speed Precip Events Conditions
12:53 AM 23.0 °F - 18.0 °F 81% 30.05 in 10.0 mi Calm Calm - N/A   Overcast
1:53 AM 27.0 °F 19.5 °F 21.0 °F 78% 30.03 in 10.0 mi SW 6.9 mph - N/A   Overcast
2:08 AM 28.4 °F 18.0 °F 23.0 °F 80% 29.98 in 2.5 mi SW 12.7 mph - 0.00 in Snow Light Snow
2:16 AM 28.4 °F 18.0 °F 26.6 °F 93% 29.97 in 1.2 mi SW 12.7 mph - 0.00 in Snow Light Snow
2:21 AM 28.4 °F 19.1 °F 26.6 °F 93% 29.97 in 3.0 mi SSW 10.4 mph - 0.00 in Snow Light Snow
2:31 AM 28.4 °F 20.4 °F 26.6 °F 93% 29.97 in 6.0 mi SW 8.1 mph - 0.00 in Snow Light Snow
2:53 AM 30.0 °F 25.2 °F 27.0 °F 88% 29.99 in 8.0 mi SW 4.6 mph - 0.00 in   Overcast
3:53 AM 30.0 °F 26.5 °F 27.0 °F 88% 29.95 in 9.0 mi South 3.5 mph - 0.00 in   Overcast
4:53 AM 28.9 °F - 26.1 °F 89% 29.95 in 10.0 mi Calm Calm - N/A   Overcast
5:53 AM 28.0 °F - 24.1 °F 85% 29.95 in 10.0 mi Calm Calm - N/A   Overcast
6:53 AM 28.0 °F 24.2 °F 24.1 °F 85% 29.96 in 10.0 mi South 3.5 mph - N/A   Overcast
7:53 AM 28.0 °F 20.8 °F 23.0 °F 81% 29.95 in 10.0 mi South 6.9 mph - N/A   Overcast
8:53 AM 28.9 °F 21.1 °F 24.1 °F 82% 29.95 in 10.0 mi SSW 8.1 mph - N/A   Overcast
9:53 AM 32.0 °F 22.1 °F 27.0 °F 82% 29.95 in 10.0 mi SW 13.8 mph - N/A   Overcast
10:53 AM 33.1 °F 24.4 °F 28.0 °F 82% 29.93 in 10.0 mi SSW 11.5 mph - N/A   Overcast
11:53 AM 34.0 °F 26.0 °F 28.0 °F 79% 29.92 in 10.0 mi SSW 10.4 mph - N/A   Overcast
12:11 PM 35.6 °F 27.1 °F 28.4 °F 75% 29.87 in 10.0 mi SSW 12.7 mph - N/A   Scattered Clouds
12:53 PM 35.1 °F 27.4 °F 28.9 °F 78% 29.89 in 10.0 mi SSW 10.4 mph - N/A   Clear
1:53 PM 35.1 °F 27.4 °F 28.9 °F 78% 29.83 in 10.0 mi South 10.4 mph - N/A   Clear
2:53 PM 37.0 °F 28.1 °F 30.0 °F 76% 29.79 in 10.0 mi South 15.0 mph - N/A   Clear
3:53 PM 37.0 °F 30.4 °F 30.9 °F 79% 29.77 in 10.0 mi South 9.2 mph - N/A   Clear
4:53 PM 37.0 °F 30.4 °F 30.9 °F 79% 29.75 in 10.0 mi SSE 9.2 mph - N/A   Clear
5:53 PM 37.9 °F 32.7 °F 30.9 °F 76% 29.74 in 10.0 mi SE 6.9 mph - N/A   Clear
6:53 PM 35.1 °F 30.1 °F 30.9 °F 85% 29.75 in 10.0 mi SE 5.8 mph - N/A   Clear
7:53 PM 36.0 °F 28.5 °F 32.0 °F 86% 29.73 in 10.0 mi SE 10.4 mph - N/A   Clear
9:53 PM 35.1 °F 27.9 °F 30.0 °F 82% 29.72 in 10.0 mi SE 9.2 mph - N/A   Clear
10:53 PM 35.1 °F 27.4 °F 28.9 °F 78% 29.70 in 10.0 mi SSE 10.4 mph - N/A   Clear
11:53 PM 34.0 °F 26.6 °F 28.9 °F 82% 29.68 in 10.0 mi SSE 9.2 mph - N/A   Clear